STARLINK-37617, 69314

Orbit data source: Space-Track

STARLINK-37617, 69314 is a payload satellite owned by SpaceX/Seattle (US) in SSO that was launched on Sat, 30 May 2026 UTC via an FALCON 9 launch vehicle from the Air Force Western Test Range (AFWTR). Payload-class satellites include a variety of spacecraft equipped with specific instruments for various scientific and technological missions. These include communications satellites like Starlink; space stations such as the ISS; scientific satellites like the Hubble; Earth observation satellites from companies like Planet Labs, Umbra, and HawkEye 360; GPS; miniature CubeSats for education and research; and military/defense satellites.

Loading next visibility...
Identifier
69314, 2026-119U
Orbit
SSO
Country
Flag of USUS
Related business
Manufacturer
SpaceX/Seattle
Mission
Operational Commercial Communications
Bus & Motor
STARLINK V2MO, Unknown motor
Mass
575 kg wet, ~530 kg dry
Launch date (UTC)
2026-05-30 (4 months ago)
Launch vehicle
FALCON 9
Launch site
Air Force Western Test Range (AFWTR)
Object type
Payload
Rocket body
Debris
Shape & HBR
Box + 1 Pan, 17.7 m
Radar Cross Section
41.120 m², Large (>1 m²)

Expand to show TLE details & history
Last TLE update: 17 hours ago

TLE from 17 hours ago
0 STARLINK-37617
1 69314U 26119U   26263.54685971  .00021877  00000-0  67764-3 0  9994
2 69314  97.2843 288.3293 0000412 184.1970 175.9269 15.33462540 18674
Epoch: 2026-09-20T13:07Z
TLE epoch observation values (Epoch: 2026-09-20T13:07:28.678Z)
Latitude
-0.00009°
Longitude
92.02034°
Altitude
468.884 km
Speed
7.632 km/s
True Right ascension
19h 13m 19s
True Declination
0° 00' 00"
Sunlit
Object was in daylight at epoch
Visualization orbit readout
Latitude
Unknown
Longitude
Unknown
Altitude
Unknown
Speed
Unknown
Apparent Right ascension
Unknown
Apparent Declination
Unknown
Sunlit
N/A
Visualization observer readout
Local Sidereal Time
23:11:01
Azimuth
Unknown
Elevation
Unknown
Doppler factor
Unknown
Orbital elements
Apogee altitude
462.716 km
Perigee altitude
462.152 km
Semi-major axis
6,840.571 km
Eccentricity
0.00004
Inclination
97.2843°
RAAN
288.3293°
Arg. of periapsis
184.197°
True anomaly
175.92724°
Mean anomaly
175.9269°
Eccentric anomaly
175.92707°
Mean motion
3.83623 °/min
Orbital period
93.84 mins
BSTAR
0.00067764
Loading maneuver chart data...
Computing Atmospheric mass density...
Loading historical data...
Loading historical data...
Loading historical data...
Loading historical data...
Loading historical data...
Loading historical data...
Loading historical data...

Documentation

Showing up to 5 results
|